DW0664 Weather Reports


Display with metric or nautical units.
time (UTC)temp
F
wind
direction
speed
MPH
gust
MPH
rain 1hr
in
rain 24hr
in
rain mn
in
humidity
%
barometer
mb
20211024002547 77 209 0.0 0.0 0.00 0.00 0.14 79 1010.0
20211024002057 77 179 0.0 0.0 0.00 0.00 0.14 78 1009.9
20211024001621 78 154 0.0 0.0 0.00 0.00 0.14 78 1009.8
20211024001050 78 136 0.0 0.0 0.00 0.00 0.14 77 1009.9
20211024000611 79 161 0.0 0.0 0.00 0.00 0.14 76 1009.9
20211024000131 79 115 0.0 0.0 0.00 0.00 0.14 76 1009.9
20211023235606 79 127 0.0 0.0 0.00 0.00 0.14 76 1009.9
20211023235046 80 158 0.0 0.0 0.00 0.00 0.14 75 1009.7
20211023234549 80 134 0.0 0.0 0.00 0.00 0.14 75 1009.6
20211023234046 81 130 0.0 0.0 0.00 0.00 0.14 74 1009.5
20211023233557 81 137 0.0 0.0 0.00 0.00 0.14 73 1009.4
20211023233058 81 128 0.0 0.0 0.00 0.00 0.14 73 1009.4
20211023232546 81 135 0.0 0.0 0.00 0.00 0.14 72 1009.3
20211023232056 81 144 0.0 0.0 0.00 0.00 0.14 72 1009.3
20211023231633 82 132 0.0 0.0 0.00 0.00 0.14 72 1009.2
20211023231102 82 121 0.0 0.0 0.00 0.00 0.14 71 1009.2
20211023230609 82 136 0.0 0.0 0.00 0.00 0.14 71 1009.1
20211023230113 82 164 0.0 0.0 0.00 0.00 0.14 70 1009.0
20211023225545 82 150 0.0 0.0 0.00 0.00 0.14 70 1008.9
20211023225048 83 151 0.0 0.0 0.00 0.00 0.14 69 1008.9
20211023224640 83 127 0.0 0.0 0.00 0.00 0.14 67 1008.8
20211023224048 83 142 0.0 0.0 0.00 0.00 0.14 67 1008.9
20211023223544 83 159 0.0 0.0 0.00 0.00 0.14 69 1008.9
20211023223120 83 142 0.0 0.0 0.00 0.00 0.14 68 1008.8
20211023222544 84 142 0.0 0.0 0.00 0.00 0.14 69 1008.8
20211023222051 84 136 0.0 0.0 0.00 0.00 0.13 68 1008.8
20211023221644 84 136 0.0 0.0 0.00 0.00 0.13 67 1008.8
20211023221044 84 109 0.0 0.0 0.00 0.00 0.13 66 1008.9
20211023220542 84 128 0.0 0.0 0.00 0.00 0.13 65 1009.0
20211023220106 84 153 0.0 0.0 0.00 0.00 0.13 66 1009.2
20211023215542 84 167 0.0 0.0 0.00 0.00 0.13 67 1009.2
20211023215039 84 146 0.0 0.0 0.00 0.00 0.13 70 1009.3
20211023214622 84 145 0.0 0.0 0.00 0.00 0.13 70 1009.3
20211023214039 84 144 0.0 0.0 0.00 0.00 0.13 69 1009.3
20211023213552 84 111 0.0 0.0 0.00 0.00 0.13 69 1009.4
20211023213139 85 103 0.0 0.0 0.00 0.00 0.13 67 1009.4
20211023212542 85 105 0.0 0.0 0.00 0.00 0.13 67 1009.4
20211023212043 85 135 0.0 0.0 0.00 0.00 0.13 66 1009.4
20211023211609 85 72 0.0 0.0 0.00 0.00 0.13 70 1009.3
20211023211042 85 156 0.0 0.0 0.00 0.00 0.13 71 1009.4
20211023210537 85 132 0.0 0.0 0.00 0.00 0.13 70 1009.3
20211023210056 85 147 0.0 0.0 0.00 0.00 0.13 69 1009.3
20211023205535 85 174 0.0 0.0 0.00 0.00 0.13 70 1009.3
20211023205034 85 109 0.0 0.0 0.00 0.00 0.13 70 1009.4
20211023204630 85 189 0.0 0.0 0.00 0.00 0.13 71 1009.5
20211023204044 85 111 0.0 0.0 0.00 0.00 0.13 71 1009.5
20211023203537 84 155 0.0 0.0 0.00 0.00 0.13 70 1009.5
20211023203050 84 107 0.0 0.0 0.00 0.00 0.13 72 1009.5
20211023202536 84 154 0.0 0.0 0.00 0.00 0.13 71 1009.6
20211023202036 85 77 0.0 0.0 0.00 0.00 0.13 71 1009.7
20211023201545 85 145 0.0 0.0 0.00 0.00 0.13 74 1009.7
20211023201050 84 139 0.0 0.0 0.00 0.00 0.13 76 1009.7
20211023200533 84 123 0.0 0.0 0.00 0.00 0.13 75 1009.8
20211023200035 84 121 0.0 0.0 0.00 0.00 0.13 73 1009.9
20211023195526 85 142 0.0 0.0 0.00 0.00 0.13 74 1009.8
20211023195036 84 136 0.0 0.0 0.00 0.00 0.13 75 1010.0
20211023194526 84 153 0.0 0.0 0.00 0.00 0.13 75 1010.1
20211023194023 84 52 0.0 0.0 0.00 0.00 0.13 75 1010.3
20211023193522 84 105 0.0 0.0 0.00 0.00 0.13 75 1010.3
20211023193024 84 157 0.0 0.0 0.00 0.00 0.13 78 1010.3
20211023192520 83 153 0.0 0.0 0.00 0.00 0.13 77 1010.3
20211023192028 83 136 0.0 0.0 0.00 0.00 0.13 77 1010.4
20211023191541 83 108 0.0 0.0 0.00 0.00 0.13 82 1010.4
20211023191029 82 105 0.0 0.0 0.00 0.00 0.13 82 1010.5
20211023190516 81 88 0.0 0.0 0.00 0.00 0.13 82 1010.6
20211023190042 81 150 0.0 0.0 0.00 0.00 0.13 82 1010.7
20211023185521 81 150 0.0 0.0 0.00 0.00 0.13 86 1010.9
20211023185026 80 150 0.0 0.0 0.00 0.00 0.13 87 1011.0
20211023184516 79 150 0.0 0.0 0.00 0.00 0.13 86 1011.2
20211023184013 79 150 0.0 0.0 0.00 0.00 0.13 85 1011.4
20211023183512 79 150 0.0 0.0 0.00 0.00 0.13 85 1011.4
20211023183012 79 153 0.0 0.0 0.00 0.00 0.13 90 1011.6
20211023182516 78 153 0.0 0.0 0.00 0.00 0.13 90 1011.8
20211023182010 77 153 0.0 0.0 0.00 0.00 0.13 90 1012.0
20211023181510 76 153 0.0 0.0 0.00 0.00 0.13 90 1012.2
20211023181008 76 153 0.0 0.0 0.00 0.00 0.13 88 1012.4
20211023180517 76 153 0.0 0.0 0.00 0.00 0.12 88 1012.3
20211023180010 76 153 0.0 0.0 0.00 0.00 0.09 87 1012.4
20211023175507 77 157 0.0 0.0 0.00 0.00 0.05 85 1012.4
20211023175012 80 155 0.0 0.0 0.00 0.00 0.01 82 1012.4
20211023174515 82 90 0.0 0.0 0.00 0.00 0.00 79 1012.6
20211023174007 83 90 0.0 0.0 0.00 0.00 0.00 79 1012.5
20211023173506 83 140 0.0 0.0 0.00 0.00 0.00 81 1012.4
20211023173004 82 142 0.0 0.0 0.00 0.00 0.00 82 1012.5
20211023172502 81 129 0.0 0.0 0.00 0.00 0.00 85 1012.5
20211023172004 79 121 0.0 0.0 0.00 0.00 0.00 86 1012.7
20211023171639 79 121 0.0 0.0 0.00 0.00 0.00 85 1012.7
20211023171506 79 121 0.0 0.0 0.00 0.00 0.00 85 1012.7
20211023171108 79 120 0.0 0.0 0.00 0.00 0.00 85 1012.8
20211023170600 79 120 0.0 0.0 0.00 0.00 0.00 85 1012.9
20211023170233 80 120 0.0 0.0 0.00 0.00 0.00 84 1012.9
20211023165559 80 153 0.0 0.0 0.00 0.00 0.00 82 1013.0
20211023165100 80 153 0.0 0.0 0.00 0.00 0.00 82 1012.9
20211023164655 80 155 0.0 0.0 0.00 0.00 0.00 83 1013.0
20211023164059 80 154 0.0 0.0 0.00 0.00 0.00 83 1013.0
20211023163559 80 208 0.0 0.0 0.00 0.00 0.00 82 1013.1
20211023163134 80 207 0.0 0.0 0.00 0.00 0.00 82 1013.0
20211023162603 80 207 0.0 0.0 0.00 0.00 0.00 83 1013.1
20211023162128 79 232 0.0 0.0 0.00 0.00 0.00 85 1013.1
20211023161631 79 234 0.0 0.0 0.00 0.00 0.00 85 1013.2
20211023161057 79 234 0.0 0.0 0.00 0.00 0.00 84 1013.2
20211023160623 79 234 0.0 0.0 0.00 0.00 0.00 85 1013.3
20211023160205 79 234 0.0 0.0 0.00 0.00 0.00 85 1013.3
20211023155556 79 231 0.0 0.0 0.00 0.00 0.00 85 1013.3
20211023155056 79 208 0.0 0.0 0.00 0.00 0.00 85 1013.3
20211023154655 79 165 0.0 0.0 0.00 0.00 0.00 85 1013.3
20211023154055 79 165 0.0 0.0 0.00 0.00 0.00 86 1013.3
20211023153555 79 134 0.0 0.0 0.00 0.00 0.00 86 1013.3
20211023153124 79 130 0.0 0.0 0.00 0.00 0.00 87 1013.3
20211023152601 78 143 0.0 0.0 0.00 0.00 0.00 87 1013.2
20211023152054 78 142 0.0 0.0 0.00 0.00 0.00 87 1013.3
20211023151645 78 142 0.0 0.0 0.00 0.00 0.00 88 1013.3
20211023151105 77 124 0.0 0.0 0.00 0.00 0.00 88 1013.4
20211023150607 77 121 0.0 0.0 0.00 0.00 0.00 88 1013.4
20211023150125 77 121 0.0 0.0 0.00 0.00 0.00 88 1013.4
20211023145548 77 121 0.0 0.0 0.00 0.00 0.00 88 1013.3
20211023145059 77 121 0.0 0.0 0.00 0.00 0.00 88 1013.3
20211023144631 76 121 0.0 0.0 0.00 0.00 0.00 88 1013.4
20211023144050 76 123 0.0 0.0 0.00 0.00 0.00 89 1013.4
20211023143545 76 123 0.0 0.0 0.00 0.00 0.00 89 1013.3
20211023143107 76 123 0.0 0.0 0.00 0.00 0.00 89 1013.4
20211023142544 76 123 0.0 0.0 0.00 0.00 0.00 89 1013.3
20211023142044 76 123 0.0 0.0 0.00 0.00 0.00 89 1013.2
20211023141547 76 123 0.0 0.0 0.00 0.00 0.00 89 1013.2
20211023141050 75 122 0.0 0.0 0.00 0.00 0.00 90 1013.1
20211023140541 75 127 0.0 0.0 0.00 0.00 0.00 90 1013.0
20211023140150 75 127 0.0 0.0 0.00 0.00 0.00 90 1013.0
20211023135541 75 126 0.0 0.0 0.00 0.00 0.00 90 1012.9
20211023135039 75 126 0.0 0.0 0.00 0.00 0.00 90 1012.9
20211023134634 75 126 0.0 0.0 0.00 0.00 0.00 90 1012.8
20211023134038 75 126 0.0 0.0 0.00 0.00 0.00 90 1012.8
20211023133538 75 78 0.0 0.0 0.00 0.00 0.00 91 1012.7
20211023133043 74 78 0.0 0.0 0.00 0.00 0.00 91 1012.7
20211023132537 74 78 0.0 0.0 0.00 0.00 0.00 91 1012.7
20211023132038 74 113 0.0 0.0 0.00 0.00 0.00 91 1012.6
20211023131543 74 136 0.0 0.0 0.00 0.00 0.00 91 1012.5
20211023131041 74 132 0.0 0.0 0.00 0.00 0.00 91 1012.4
20211023130534 74 134 0.0 0.0 0.00 0.00 0.00 91 1012.3
20211023130119 74 152 0.0 0.0 0.00 0.00 0.00 91 1012.3
20211023125534 74 153 0.0 0.0 0.00 0.00 0.00 91 1012.3
20211023125032 74 126 0.0 0.0 0.00 0.00 0.00 91 1012.3
20211023124645 74 125 0.0 0.0 0.00 0.00 0.00 91 1012.3
20211023124032 74 126 0.0 0.0 0.00 0.00 0.00 91 1012.3
20211023123541 74 126 0.0 0.0 0.00 0.00 0.00 91 1012.2
20211023123053 74 132 0.0 0.0 0.00 0.00 0.00 91 1012.1
20211023122553 74 132 0.0 0.0 0.00 0.00 0.00 91 1012.1
20211023122035 74 131 0.0 0.0 0.00 0.00 0.00 91 1012.1
20211023121550 74 131 0.0 0.0 0.00 0.00 0.00 91 1012.1
20211023121052 74 131 0.0 0.0 0.00 0.00 0.00 91 1012.1
20211023120532 74 130 0.0 0.0 0.00 0.00 0.00 91 1012.1
20211023120057 74 130 0.0 0.0 0.00 0.00 0.00 91 1012.1
20211023115535 74 130 0.0 0.0 0.00 0.00 0.00 91 1012.0
20211023115106 74 130 0.0 0.0 0.00 0.00 0.00 91 1011.9
20211023114609 74 133 0.0 0.0 0.00 0.00 0.00 91 1011.9
20211023114034 74 133 0.0 0.0 0.00 0.00 0.00 91 1012.0
20211023113531 74 133 0.0 0.0 0.00 0.00 0.00 91 1012.0
20211023113124 74 133 0.0 0.0 0.00 0.00 0.00 91 1012.0
20211023112531 74 133 0.0 0.0 0.00 0.00 0.00 91 1012.0
20211023112035 74 133 0.0 0.0 0.00 0.00 0.00 91 1011.9
20211023111556 74 133 0.0 0.0 0.00 0.00 0.00 91 1011.9
20211023111035 74 133 0.0 0.0 0.00 0.00 0.00 90 1011.9
20211023110530 74 134 0.0 0.0 0.00 0.00 0.00 90 1011.9
20211023110047 74 134 0.0 0.0 0.00 0.00 0.00 90 1011.9
20211023105542 74 134 0.0 0.0 0.00 0.00 0.00 90 1011.9
20211023105034 74 134 0.0 0.0 0.00 0.00 0.00 90 1011.9
20211023104537 74 134 0.0 0.0 0.00 0.00 0.00 90 1011.8
20211023104034 74 134 0.0 0.0 0.00 0.00 0.00 90 1011.9
20211023103551 74 133 0.0 0.0 0.00 0.00 0.00 90 1011.9
20211023103111 74 133 0.0 0.0 0.00 0.00 0.00 90 1011.9
20211023102531 74 133 0.0 0.0 0.00 0.00 0.00 90 1011.9
20211023102027 74 133 0.0 0.0 0.00 0.00 0.00 90 1011.9
20211023101532 74 134 0.0 0.0 0.00 0.00 0.00 90 1011.9
20211023101027 74 134 0.0 0.0 0.00 0.00 0.00 90 1011.9
20211023100534 74 134 0.0 0.0 0.00 0.00 0.00 90 1011.9
20211023100056 74 134 0.0 0.0 0.00 0.00 0.00 90 1012.0
20211023095526 74 134 0.0 0.0 0.00 0.00 0.00 90 1012.0
20211023095034 74 133 0.0 0.0 0.00 0.00 0.00 90 1012.0
20211023094639 74 136 0.0 0.0 0.00 0.00 0.00 90 1012.1
20211023094025 74 136 0.0 0.0 0.00 0.00 0.00 90 1012.1
20211023093525 74 136 0.0 0.0 0.00 0.00 0.00 90 1012.1
20211023093039 74 136 0.0 0.0 0.00 0.00 0.00 90 1012.1
20211023092530 74 141 0.0 0.0 0.00 0.00 0.00 90 1012.1
20211023092024 74 140 0.0 0.0 0.00 0.00 0.00 90 1012.0
20211023091536 74 140 0.0 0.0 0.00 0.00 0.00 90 1012.2
20211023091036 74 137 0.0 0.0 0.00 0.00 0.00 90 1012.2
20211023090528 74 134 0.0 0.0 0.00 0.00 0.00 90 1012.2
20211023090029 74 133 0.0 0.0 0.00 0.00 0.00 90 1012.2
20211023085522 74 132 0.0 0.0 0.00 0.00 0.00 90 1012.2
20211023085021 74 126 0.0 0.0 0.00 0.00 0.00 90 1012.3
20211023084540 74 128 0.0 0.0 0.00 0.00 0.00 90 1012.4
20211023084019 74 130 0.0 0.0 0.00 0.00 0.00 90 1012.5
20211023083519 74 132 0.0 0.0 0.00 0.00 0.00 90 1012.6
20211023083033 74 148 0.0 0.0 0.00 0.00 0.00 90 1012.6
20211023082518 73 123 0.0 0.0 0.00 0.00 0.00 90 1012.6
20211023082018 73 123 0.0 0.0 0.00 0.00 0.00 90 1012.6
20211023081523 73 123 0.0 0.0 0.00 0.00 0.00 90 1012.7
20211023081031 73 123 0.0 0.0 0.00 0.00 0.00 90 1012.7
20211023080516 73 126 0.0 0.0 0.00 0.00 0.00 90 1012.8
20211023080022 73 127 0.0 0.0 0.00 0.00 0.00 90 1012.8
20211023075516 73 128 0.0 0.0 0.00 0.00 0.00 90 1012.8
20211023075014 73 129 0.0 0.0 0.00 0.00 0.00 90 1012.9
20211023074515 73 128 0.0 0.0 0.00 0.00 0.00 90 1013.0
20211023074014 73 128 0.0 0.0 0.00 0.00 0.00 90 1013.0
20211023073516 73 128 0.0 0.0 0.00 0.00 0.00 90 1013.0
20211023073015 73 128 0.0 0.0 0.00 0.00 0.00 90 1013.1
20211023072524 73 128 0.0 0.0 0.00 0.00 0.00 90 1013.1
20211023072013 73 130 0.0 0.0 0.00 0.00 0.00 90 1013.1
20211023071515 73 132 0.0 0.0 0.00 0.00 0.00 89 1013.1
20211023071014 73 132 0.0 0.0 0.00 0.00 0.00 89 1013.2
20211023070511 73 127 0.0 0.0 0.00 0.00 0.00 89 1013.1
20211023070026 73 127 0.0 0.0 0.00 0.00 0.00 89 1013.1
20211023065511 73 127 0.0 0.0 0.00 0.00 0.00 89 1013.2
20211023065010 73 126 0.0 0.0 0.00 0.00 0.00 89 1013.2
20211023064523 73 126 0.0 0.0 0.00 0.00 0.00 89 1013.1
20211023064017 73 122 0.0 0.0 0.00 0.00 0.00 89 1013.2
20211023063529 73 123 0.0 0.0 0.00 0.00 0.00 89 1013.2
20211023063038 73 123 0.0 0.0 0.00 0.00 0.00 89 1013.2
20211023062515 73 123 0.0 0.0 0.00 0.00 0.00 89 1013.2
20211023062035 73 123 0.0 0.0 0.00 0.00 0.00 88 1013.2
20211023061518 73 123 0.0 0.0 0.00 0.00 0.00 88 1013.3
20211023061007 73 123 0.0 0.0 0.00 0.00 0.00 88 1013.3
20211023060507 73 123 0.0 0.0 0.00 0.00 0.00 88 1013.3
20211023060023 73 105 0.0 0.0 0.00 0.00 0.00 88 1013.4
20211023055511 73 87 0.0 0.0 0.00 0.00 0.00 88 1013.3
20211023055005 73 86 0.0 0.0 0.00 0.00 0.00 88 1013.3
20211023054510 73 132 0.0 0.0 0.00 0.00 0.00 87 1013.4
20211023054008 73 130 0.0 0.0 0.00 0.00 0.00 87 1013.4
20211023053510 73 134 0.0 0.0 0.00 0.00 0.00 87 1013.4
20211023053004 73 115 0.0 0.0 0.00 0.00 0.00 87 1013.4
20211023052502 73 115 0.0 0.0 0.00 0.00 0.00 87 1013.4
20211023052001 73 108 0.0 0.0 0.00 0.00 0.00 86 1013.5
20211023051503 73 100 0.0 0.0 0.00 0.00 0.00 86 1013.4
20211023050559 74 146 0.0 0.0 0.00 0.00 0.00 86 1013.5
20211023050126 74 141 0.0 0.0 0.00 0.00 0.00 85 1013.6
20211023045639 74 134 0.0 0.0 0.00 0.00 0.00 85 1013.7
20211023045102 74 131 0.0 0.0 0.00 0.00 0.00 84 1013.7
20211023044623 74 132 0.0 0.0 0.00 0.00 0.00 84 1013.7
20211023044058 74 132 0.0 0.0 0.00 0.00 0.00 84 1013.7
20211023043634 75 132 0.0 0.0 0.00 0.00 0.00 83 1013.8
20211023043222 75 128 0.0 0.0 0.00 0.00 0.00 83 1013.8
20211023042558 75 127 0.0 0.0 0.00 0.00 0.00 82 1013.8
20211023042105 75 115 0.0 0.0 0.00 0.00 0.00 82 1013.9
20211023041631 75 115 0.0 0.0 0.00 0.00 0.00 81 1013.8
20211023041057 75 109 0.0 0.0 0.00 0.00 0.00 81 1013.8
20211023040557 75 123 0.0 0.0 0.00 0.00 0.00 80 1013.9
20211023040244 74 119 0.0 0.0 0.00 0.00 0.00 78 1013.9
20211023035609 74 119 0.0 0.0 0.00 0.00 0.00 78 1013.7
20211023035103 74 119 0.0 0.0 0.00 0.00 0.00 79 1013.7
20211023034626 74 119 0.0 0.0 0.00 0.00 0.00 79 1013.7
20211023034106 74 119 0.0 0.0 0.00 0.00 0.00 78 1013.7
20211023033556 74 119 0.0 0.0 0.00 0.00 0.00 78 1013.7
20211023033119 74 119 0.0 0.0 0.00 0.00 0.00 78 1013.7
20211023032556 74 119 0.0 0.0 0.00 0.00 0.00 78 1013.7
20211023032058 74 119 0.0 0.0 0.00 0.00 0.00 78 1013.7
20211023031614 75 119 0.0 0.0 0.00 0.00 0.00 77 1013.7
20211023031055 75 119 0.0 0.0 0.00 0.00 0.00 77 1013.7
20211023030607 75 119 0.0 0.0 0.00 0.00 0.00 77 1013.7
20211023030104 75 119 0.0 0.0 0.00 0.00 0.00 76 1013.7
20211023025057 75 119 0.0 0.0 0.00 0.00 0.00 76 1013.7
20211023024722 75 119 0.0 0.0 0.00 0.00 0.00 76 1013.6
20211023024108 76 118 0.0 0.0 0.00 0.00 0.00 77 1013.7
20211023023554 76 118 0.0 0.0 0.00 0.00 0.00 76 1013.7
20211023023116 76 118 0.0 0.0 0.00 0.00 0.00 77 1013.7
20211023022554 76 118 0.0 0.0 0.00 0.00 0.00 76 1013.6
20211023022055 76 118 0.0 0.0 0.00 0.00 0.00 76 1013.6
20211023021617 76 118 0.0 0.0 0.00 0.00 0.00 75 1013.7
20211023021053 77 118 0.0 0.0 0.00 0.00 0.00 75 1013.7
20211023020600 77 118 0.0 0.0 0.00 0.00 0.00 74 1013.6
20211023020126 77 118 0.0 0.0 0.00 0.00 0.00 74 1013.6
20211023015559 77 118 0.0 0.0 0.00 0.00 0.00 74 1013.6
20211023015056 77 118 0.0 0.0 0.00 0.00 0.00 74 1013.6
20211023014620 77 118 0.0 0.0 0.00 0.00 0.00 73 1013.5
20211023014106 78 118 0.0 0.0 0.00 0.00 0.00 73 1013.5
20211023013657 78 117 0.0 0.0 0.00 0.00 0.00 72 1013.5
20211023013053 78 123 0.0 0.0 0.00 0.00 0.00 72 1013.5
20211023012552 78 123 0.0 0.0 0.00 0.00 0.00 72 1013.5
20211023012052 78 123 0.0 0.0 0.00 0.00 0.00 72 1013.5
20211023011552 78 123 0.0 0.0 0.00 0.00 0.00 72 1013.5
20211023011051 78 123 0.0 0.0 0.00 0.00 0.00 72 1013.5
20211023010604 78 123 0.0 0.0 0.00 0.00 0.00 72 1013.4
20211023010148 78 123 0.0 0.0 0.00 0.00 0.00 72 1013.5
20211023005551 78 123 0.0 0.0 0.00 0.00 0.00 72 1013.5
20211023005051 79 123 0.0 0.0 0.00 0.00 0.00 71 1013.4
20211023004628 79 123 0.0 0.0 0.00 0.00 0.00 70 1013.4
20211023004050 79 123 0.0 0.0 0.00 0.00 0.00 70 1013.4
20211023003550 79 136 0.0 0.0 0.00 0.00 0.00 69 1013.4
20211023003106 80 136 0.0 0.0 0.00 0.00 0.00 69 1013.3